Theta_e
315 317 319 320 320 320 323 323 329 331 327 322 320 325 322 322 324 320 321 322 322 319 319 321 320 321 322 325 327 327 325 328 331 335 343 338 336 339 339 340 337 336 334 332 331 330 329 328 330 333 334 335 335 335 334 334 333 333 332 330 330 329 327 327 324 321 318 318 320 321 319 318 317 314 311 311 311 312 319 323 325 324 326 329 328 327 322 313 309 309 309 309 309 308 308 309 310
315 317 319 320 319 322 325 324 329 330 327 322 319 323 320 325 327 322 324 324 322 319 319 320 319 320 321 325 325 329 330 327 326 332 338 337 338 340 340 339 337 337 334 331 330 329 328 329 333 333 334 334 334 334 333 334 333 333 331 328 328 326 327 327 325 322 318 319 321 322 320 318 317 314 312 312 314 320 325 326 326 327 328 329 329 327 319 311 308 306 307 307 307 307 308 310 311
315 317 319 320 322 323 325 327 328 326 326 322 317 320 322 326 326 322 322 320 320 318 319 320 319 321 321 324 325 331 333 328 324 330 338 339 339 339 339 339 337 336 334 330 329 329 327 330 333 333 333 334 334 334 334 334 333 333 330 326 325 325 327 326 324 321 319 321 322 323 321 318 318 314 311 311 314 321 324 323 324 327 327 327 328 326 319 310 307 307 307 307 307 308 309 310 312
315 317 320 322 326 326 327 329 330 329 322 320 317 319 324 324 323 320 320 319 319 320 320 321 320 321 322 324 327 331 332 329 327 328 336 338 338 339 339 337 337 336 334 331 329 329 327 329 333 333 334 333 334 334 334 334 333 333 331 326 323 325 326 325 324 321 320 322 323 323 322 319 319 316 311 309 316 321 323 324 324 325 324 324 325 323 319 311 307 308 307 308 308 308 309 311 313
315 317 322 323 327 326 327 329 332 330 319 323 323 319 324 322 321 319 319 320 319 320 321 322 320 319 321 324 328 332 331 330 329 326 333 337 338 339 339 338 336 336 334 331 329 329 327 327 331 332 332 333 333 334 333 333 332 331 330 326 324 325 325 325 323 321 321 323 323 323 322 320 319 319 313 309 315 321 323 327 327 327 326 324 322 317 314 310 307 307 307 307 307 308 311 313 315
315 318 322 321 325 323 328 328 324 323 316 326 324 319 323 319 319 318 318 320 320 321 320 321 321 320 324 326 328 330 330 330 327 326 331 335 337 338 339 339 337 337 335 333 331 329 327 326 328 330 331 332 332 333 333 332 331 329 327 325 323 324 324 325 323 322 322 323 324 323 321 320 319 320 317 310 310 313 318 325 326 327 327 324 322 315 312 309 306 307 307 307 307 308 312 315 317
317 321 322 322 326 322 331 329 321 323 318 321 322 320 322 317 318 318 318 320 319 320 319 320 320 323 325 326 327 329 331 329 324 325 329 333 336 337 338 338 338 338 336 335 335 332 329 327 327 328 330 331 332 332 332 332 331 328 326 323 322 323 324 325 323 322 322 323 324 323 321 320 319 319 319 314 308 308 310 315 318 321 322 320 317 313 310 307 306 307 306 307 307 308 311 314 317
320 323 322 325 329 326 330 328 323 326 320 318 320 320 320 317 318 318 318 319 319 319 318 318 319 323 322 323 328 329 331 329 324 323 326 330 334 335 336 338 339 338 336 337 337 336 333 329 327 327 328 329 331 332 332 333 331 328 325 322 321 322 324 324 323 322 322 322 323 323 322 320 319 319 319 316 310 307 306 307 308 310 313 311 309 307 307 306 306 306 306 306 306 307 308 312 314
321 324 323 324 328 328 326 324 322 322 320 320 319 319 319 319 319 317 318 317 318 318 317 318 318 320 320 325 327 327 329 328 326 325 325 328 331 333 336 338 338 337 336 338 338 337 335 332 329 327 327 329 330 331 332 333 331 327 324 322 321 322 324 324 323 322 322 322 323 323 323 321 320 319 319 317 313 308 306 305 305 305 306 306 305 305 305 305 305 305 305 305 305 305 307 309 312
321 322 322 326 328 326 322 320 321 320 319 320 318 319 320 319 319 317 318 317 318 317 318 318 318 319 321 326 327 325 325 325 325 325 325 327 331 333 335 337 337 336 336 338 338 337 336 334 331 328 327 327 329 330 331 332 331 327 323 320 320 321 323 324 323 323 322 322 322 323 323 322 320 320 320 318 315 310 307 305 305 305 305 305 306 307 308 309 309 310 310 308 308 307 307 309 311
322 321 321 328 329 323 322 321 321 321 319 319 318 318 319 319 319 317 317 318 318 319 318 318 317 319 322 325 326 324 322 320 320 321 322 326 332 334 335 337 337 337 337 337 337 337 336 335 332 328 327 327 328 329 330 331 330 328 323 319 319 320 322 323 323 323 322 322 322 323 322 322 321 320 320 320 317 313 310 308 308 307 308 310 311 313 314 316 316 316 315 314 312 310 309 309 312
323 324 324 327 327 322 322 324 321 320 319 319 318 318 318 318 318 316 317 317 318 319 317 318 317 318 323 325 326 325 323 318 317 318 319 326 332 334 335 337 337 336 337 337 337 337 336 335 332 329 329 328 328 329 330 330 329 328 324 320 319 320 321 322 324 323 323 322 323 323 322 322 321 321 321 320 318 316 314 313 313 313 314 316 317 318 318 318 318 318 317 316 314 312 310 310 312
323 325 325 325 330 326 323 324 322 321 319 320 318 318 319 317 318 317 317 317 317 319 317 318 318 318 323 325 327 326 324 318 316 317 319 327 332 332 334 337 336 334 336 337 337 337 336 335 333 332 331 329 329 329 330 330 329 329 325 321 320 320 321 322 323 324 323 323 324 324 322 321 322 322 322 321 319 317 316 317 317 318 318 319 319 319 319 319 320 319 318 316 315 313 311 311 312
322 324 325 326 332 327 325 324 321 323 320 321 318 317 319 317 318 317 317 317 316 318 317 318 317 319 323 326 328 325 322 317 316 317 319 326 329 330 332 335 336 333 333 335 336 337 336 336 335 334 333 331 331 331 331 330 330 330 328 326 324 321 321 322 323 324 324 324 324 324 322 321 321 322 323 322 321 319 318 318 320 319 320 320 320 319 320 320 320 320 319 318 316 314 313 313 313
321 323 326 327 330 326 327 324 323 328 321 319 319 317 319 317 318 317 317 318 317 318 317 317 316 317 321 325 327 322 319 316 315 316 317 321 323 326 329 333 334 333 332 334 335 336 336 336 335 335 334 333 333 333 333 331 330 331 330 330 329 326 324 323 323 324 325 324 324 324 323 322 321 321 322 323 323 320 318 319 320 320 320 320 320 320 320 320 321 321 319 319 317 315 314 314 314
319 322 327 325 326 325 324 322 324 328 320 317 319 317 318 317 317 317 317 318 318 317 317 317 315 316 318 321 321 317 317 315 314 315 315 317 317 320 325 329 332 332 333 334 335 335 335 335 335 336 335 335 334 334 334 333 332 331 331 331 332 330 328 326 325 324 325 325 324 325 323 323 322 321 321 322 323 322 320 319 319 320 321 321 321 321 321 321 321 321 320 320 318 316 315 315 315
317 323 329 324 325 325 321 322 323 323 320 318 317 317 318 317 317 316 317 317 317 317 317 317 315 316 318 318 317 316 317 315 314 314 314 315 315 316 320 325 328 330 331 333 334 334 334 334 334 335 335 335 335 334 334 334 333 332 332 331 332 332 331 330 328 326 325 325 325 325 325 324 323 322 321 321 323 324 322 321 319 320 320 321 321 321 321 321 321 321 321 320 319 318 317 316 317
319 327 328 325 327 322 319 322 321 321 320 317 316 317 317 317 317 316 316 316 317 316 315 317 315 316 316 316 316 316 317 316 314 313 314 314 314 314 316 319 322 326 328 329 330 330 331 333 333 333 334 335 336 336 335 335 334 334 333 332 332 332 332 332 331 329 328 327 326 326 325 324 324 324 323 321 322 323 324 323 321 320 320 320 321 321 321 321 321 321 321 320 320 319 318 317 318
321 326 324 330 329 317 316 318 316 319 319 316 316 317 316 317 316 315 316 315 316 316 316 316 316 316 316 315 316 315 316 316 314 314 314 314 314 314 314 314 316 319 322 323 323 324 326 329 331 331 332 333 335 337 336 336 335 334 334 333 333 332 332 333 333 332 330 329 328 327 326 325 325 326 326 324 323 322 323 324 324 322 321 321 321 321 321 321 322 321 321 321 320 320 319 318 318
319 323 325 330 324 315 316 316 316 318 317 316 316 316 316 316 316 315 315 315 315 315 316 316 316 316 316 315 315 315 315 315 315 314 314 314 314 314 314 314 314 315 317 318 319 320 322 324 326 328 329 330 334 337 337 336 336 335 334 334 334 333 332 332 333 333 332 331 330 329 328 327 326 327 328 327 326 324 323 323 324 324 323 322 322 321 321 321 321 321 321 321 321 320 320 319 317
317 323 328 324 317 318 318 315 317 317 317 316 316 317 316 316 316 315 314 315 315 314 315 316 316 316 315 315 315 315 314 315 315 314 314 314 314 314 314 315 314 314 314 316 318 318 318 320 321 323 325 326 330 335 336 335 335 335 334 334 334 334 333 333 333 333 333 332 331 330 329 329 328 328 328 328 328 327 325 324 324 324 324 324 323 322 322 321 322 322 322 321 321 320 321 320 318
317 318 321 317 316 320 317 315 317 316 317 317 316 316 316 316 316 316 315 316 317 315 315 316 316 316 316 316 315 315 315 315 315 314 315 315 314 315 314 314 314 315 315 315 316 316 316 317 319 320 322 323 325 330 334 334 334 334 334 334 334 335 334 334 333 333 333 333 333 331 330 330 329 329 329 328 328 328 327 325 324 324 325 325 325 324 323 322 322 322 322 322 321 321 320 320 319
319 316 315 316 317 318 316 316 317 316 317 316 316 316 316 316 316 317 316 316 318 317 317 316 316 317 316 317 316 315 315 315 315 315 315 315 315 315 315 314 315 314 314 314 314 315 315 315 317 318 321 322 323 326 331 332 332 333 334 335 335 335 335 334 334 333 333 333 333 333 332 331 330 330 330 330 328 328 328 326 326 325 325 325 325 325 324 323 323 323 322 322 321 321 321 320 320
319 318 315 316 316 316 316 316 316 316 317 316 316 316 316 317 317 317 316 316 317 317 318 317 317 318 317 317 317 316 316 316 316 316 315 315 315 315 315 315 315 314 314 314 314 314 314 314 315 315 317 318 320 322 327 329 330 331 332 334 335 335 334 334 334 333 333 333 334 333 333 332 331 331 330 330 329 328 328 327 326 326 325 326 325 325 325 324 323 323 323 322 322 322 322 321 320
317 317 315 315 316 315 315 315 315 316 316 316 316 316 316 317 317 316 316 317 316 317 317 317 317 317 317 317 317 317 316 316 316 315 315 315 315 315 315 315 315 315 314 314 314 314 314 314 314 314 314 315 316 317 321 326 327 328 329 332 335 335 334 333 333 334 333 333 334 334 333 333 332 331 331 331 330 329 328 328 327 326 326 326 326 325 325 325 324 324 324 324 323 322 322 321 320
315 316 316 315 315 315 315 315 315 315 316 316 316 316 316 316 316 317 317 317 317 317 316 317 317 316 317 317 316 317 316 316 316 315 316 315 315 315 315 315 315 315 315 315 315 315 315 314 314 314 314 314 314 314 316 320 325 326 325 328 332 334 334 333 333 333 333 333 334 334 333 333 333 332 331 331 331 330 329 328 328 327 327 327 326 326 325 325 325 324 325 325 324 323 321 320 320
316 316 316 315 315 315 315 315 315 315 316 315 317 317 316 315 316 318 318 317 317 317 317 317 317 317 316 316 316 316 316 316 316 315 316 315 315 315 315 315 315 315 315 315 315 315 315 315 315 314 314 314 313 313 313 316 321 324 324 325 328 332 334 333 332 332 333 333 333 334 333 333 333 332 332 332 331 331 330 329 328 328 327 327 326 325 325 326 326 325 324 324 324 322 321 320 319
316 316 317 316 315 315 315 316 315 316 317 315 316 316 315 315 316 318 317 317 318 317 317 316 317 317 316 316 316 316 316 316 316 316 316 316 316 316 316 315 315 315 315 315 315 315 315 315 315 315 315 314 313 313 313 314 316 320 323 323 324 328 332 333 332 331 332 332 332 333 334 333 333 333 332 332 331 331 330 329 329 328 328 327 325 324 325 326 326 325 325 323 323 322 321 320 319
316 317 318 316 315 317 316 316 315 316 317 316 316 316 318 318 317 317 316 316 318 317 317 317 316 317 317 317 316 316 316 316 316 316 316 316 316 316 316 316 316 315 315 315 315 315 315 315 315 315 315 314 314 313 313 314 314 316 318 320 321 324 328 331 331 331 331 331 331 332 333 333 333 333 333 332 332 331 331 330 329 328 327 327 326 325 325 326 325 325 325 324 322 322 322 320 318
318 316 319 319 316 320 318 315 316 315 316 317 315 316 323 324 317 316 317 316 317 317 317 317 317 317 317 317 316 317 317 316 317 317 317 317 317 317 317 317 316 316 316 315 315 315 315 315 315 315 315 315 314 313 313 313 314 315 315 316 318 321 325 327 327 329 331 331 330 330 331 332 333 333 333 332 332 332 331 330 329 329 328 327 326 326 326 326 325 325 325 324 322 322 322 320 317
319 316 321 324 319 322 320 314 316 316 316 316 316 317 322 322 316 315 318 316 316 317 317 317 317 317 317 317 317 317 317 317 317 317 318 318 317 317 317 317 317 317 316 316 316 316 315 315 315 315 315 315 314 314 313 313 314 314 314 315 315 317 322 324 322 323 329 331 330 330 330 331 333 333 333 333 332 332 331 331 330 329 328 328 327 327 327 327 325 325 325 325 323 321 321 321 318
320 318 324 325 319 324 322 314 315 317 316 315 316 318 320 319 316 316 317 317 317 317 317 317 317 317 317 318 318 318 318 318 318 318 318 318 318 317 318 318 317 317 317 317 317 316 316 316 315 315 315 315 314 314 314 313 313 314 314 314 314 314 317 319 318 319 324 329 331 332 331 330 332 333 331 330 332 332 331 331 330 329 329 329 328 328 327 327 325 325 325 324 324 322 321 321 318
323 321 324 324 320 322 322 317 315 316 317 316 315 318 320 319 316 317 318 317 318 317 318 318 317 318 318 318 318 318 318 318 319 318 318 318 318 318 318 318 318 318 317 317 317 316 316 316 315 316 315 315 314 314 314 313 313 314 313 313 314 314 314 315 316 318 320 322 325 328 328 329 331 330 328 328 330 332 332 331 330 329 329 329 329 328 327 327 326 325 325 324 323 322 321 320 318
324 319 321 325 321 319 322 321 316 315 317 318 317 317 319 319 315 315 317 317 317 317 318 318 318 317 318 318 318 318 318 319 318 318 318 318 318 318 318 318 318 318 317 317 317 317 317 316 316 316 316 315 314 314 314 314 313 313 313 313 313 314 313 313 313 316 317 317 317 319 321 325 327 327 327 327 329 332 332 331 329 328 327 328 329 329 327 327 326 326 325 324 323 322 321 320 318
326 321 320 323 321 319 322 321 317 316 317 317 318 318 318 319 315 314 316 316 316 317 317 317 318 318 318 318 318 318 318 318 318 317 317 317 318 318 318 318 318 318 318 317 317 317 316 316 316 316 316 315 314 314 314 313 313 313 313 313 313 313 313 313 313 313 315 316 316 315 315 317 320 323 328 330 330 332 332 330 328 327 325 326 328 329 328 327 326 325 324 324 324 322 321 320 319
327 326 325 324 320 318 319 318 315 315 317 318 319 318 317 318 316 314 315 316 315 315 317 317 317 318 318 318 318 318 318 318 317 317 317 318 317 317 317 317 318 318 318 318 317 317 317 316 316 316 316 315 314 314 314 313 313 313 312 312 312 313 313 313 313 313 313 314 315 315 315 316 320 323 327 330 330 331 330 329 328 327 324 324 327 328 326 325 325 325 323 323 323 322 320 319 318
322 325 324 322 321 318 317 319 316 313 316 320 320 319 317 316 315 313 313 315 314 313 315 316 317 318 317 318 318 318 318 318 318 317 318 318 318 318 317 318 317 317 317 317 318 317 317 317 317 317 316 316 315 315 315 314 314 313 313 313 313 313 313 313 313 313 313 313 313 314 314 317 323 326 327 329 330 330 330 330 329 326 323 322 326 328 326 324 324 325 324 323 323 322 321 318 317
323 325 323 323 324 319 316 318 317 314 315 320 321 318 316 315 314 312 312 313 313 313 314 315 317 317 317 318 318 318 318 317 318 318 318 318 318 318 317 318 318 318 317 317 317 317 317 317 317 317 317 316 316 316 315 315 315 314 314 314 314 314 314 313 314 313 313 313 313 313 313 317 324 328 331 331 331 331 330 330 329 326 322 322 325 328 326 325 325 324 324 323 321 321 321 319 317
326 325 321 324 326 320 317 318 318 316 316 320 322 318 316 315 314 312 310 312 314 313 314 315 316 317 317 317 317 317 317 317 317 317 318 318 317 318 317 317 317 317 317 317 317 317 316 317 317 317 317 317 317 316 316 315 315 315 314 314 313 313 313 313 313 313 313 312 312 313 313 315 320 326 331 333 332 331 331 329 327 324 323 323 326 328 326 326 325 324 324 324 323 320 319 319 317
328 326 322 326 326 320 319 319 317 317 316 318 321 319 317 316 317 317 313 312 314 315 315 314 315 316 316 317 316 317 316 316 317 317 318 318 318 318 317 318 318 317 318 317 317 317 316 317 317 317 317 317 317 316 316 315 314 314 313 313 313 313 313 313 313 313 313 312 312 313 313 314 317 320 324 328 329 330 330 327 323 324 325 326 327 326 323 324 324 324 324 323 322 321 319 318 317
324 328 328 328 324 319 320 320 319 320 320 320 320 320 322 323 323 323 318 313 314 315 316 315 316 316 316 317 316 317 316 316 317 317 318 318 318 319 318 318 318 318 318 317 317 317 317 317 316 316 316 316 316 316 316 315 314 314 313 313 313 313 313 313 313 313 313 313 312 312 312 312 317 320 321 322 325 326 325 322 322 326 327 327 326 322 320 322 323 324 324 321 321 322 321 319 317
319 323 326 325 324 323 323 324 322 320 321 322 319 318 326 330 323 319 316 313 314 313 314 315 317 318 317 317 317 317 317 316 317 317 318 319 318 319 319 318 319 318 318 318 318 317 317 316 316 316 316 315 316 316 315 315 315 314 314 314 313 313 313 313 314 313 313 313 312 312 311 311 314 319 321 322 325 326 323 320 324 327 326 325 324 321 321 324 325 324 323 321 320 321 322 320 318
316 319 323 326 330 328 327 327 321 318 319 318 317 317 322 322 315 314 315 314 314 312 311 312 314 317 317 317 318 317 317 317 318 319 318 319 318 318 318 318 319 319 319 318 318 317 317 316 316 315 315 315 315 315 315 315 315 314 314 314 314 314 313 313 313 313 313 312 312 312 311 311 312 315 318 320 324 325 322 322 326 327 326 324 323 323 323 323 325 324 322 321 322 321 321 320 320
320 321 324 328 329 325 327 329 322 320 321 322 324 320 320 320 316 317 316 314 315 315 315 314 311 315 316 316 318 317 318 319 319 319 318 318 318 317 318 318 318 318 318 318 317 317 316 316 316 315 315 315 315 315 314 314 315 314 314 314 314 313 313 313 312 312 312 312 312 311 311 311 312 314 315 318 321 322 320 323 327 327 326 326 325 324 323 322 323 323 322 322 322 322 320 319 320
323 322 324 329 329 327 332 332 325 324 320 322 327 320 318 324 326 324 319 316 318 318 322 319 312 314 315 314 316 316 318 319 318 317 317 317 317 318 318 317 317 317 317 317 316 316 316 316 316 315 315 315 315 314 314 314 314 314 314 314 314 313 313 313 312 311 311 311 311 311 311 311 312 314 316 319 320 321 321 324 327 327 326 326 326 324 323 323 323 322 322 322 321 321 320 320 320
320 320 325 330 330 330 332 330 325 324 317 319 327 321 314 320 324 323 317 317 321 320 321 318 311 314 316 315 317 318 319 319 317 317 317 317 317 318 319 318 318 318 317 317 317 317 317 317 317 317 317 316 315 315 315 314 314 314 314 313 313 313 313 312 312 311 311 311 311 311 311 311 312 313 316 319 321 322 323 325 326 325 325 326 326 324 323 323 324 323 323 323 322 321 320 319 319
317 324 329 329 332 333 333 331 324 318 317 322 327 323 315 316 323 323 318 321 323 320 320 318 316 318 318 318 319 319 318 317 316 317 316 317 317 317 318 318 318 318 318 318 318 318 318 318 318 318 317 317 316 316 315 315 314 314 314 313 313 313 313 312 312 311 311 310 310 310 311 312 312 313 316 319 321 321 322 323 324 324 325 326 325 324 324 323 323 323 322 322 322 321 320 319 319
321 330 330 323 328 333 331 329 322 315 318 323 324 323 316 315 322 322 320 323 321 318 319 321 322 320 318 318 319 318 318 317 317 317 316 317 316 316 317 317 318 318 318 318 318 318 318 318 318 318 317 317 317 316 316 316 315 315 314 314 313 312 312 312 311 311 311 310 310 310 310 312 313 316 318 319 320 320 320 320 321 322 325 326 325 324 324 323 322 322 321 321 321 320 320 319 319
325 326 322 315 319 325 324 325 323 320 320 319 320 322 317 315 318 318 320 323 319 315 317 320 321 320 318 318 318 317 318 317 317 317 317 317 316 316 316 316 317 317 317 317 318 318 318 318 318 317 317 317 317 316 316 316 315 315 315 314 313 312 312 312 311 311 311 310 310 310 310 311 313 316 318 318 318 319 319 320 321 323 325 326 325 324 324 322 321 321 320 320 319 319 319 318 318
322 320 320 319 319 319 321 322 321 322 322 319 317 318 320 320 319 320 320 318 316 315 314 317 318 318 319 318 317 317 317 317 317 317 317 317 317 317 316 316 316 316 317 317 317 318 317 318 318 317 317 317 317 317 316 316 316 315 315 314 313 313 312 311 311 311 311 310 310 310 310 311 312 314 317 317 317 318 321 323 324 324 325 325 324 324 323 322 320 320 320 319 318 318 318 318 318
320 321 320 319 323 323 323 322 321 323 324 321 316 318 324 325 321 321 317 313 315 316 315 316 315 316 318 317 317 317 316 317 317 317 317 317 317 317 317 316 316 316 317 316 317 317 317 317 317 317 316 316 317 316 316 316 316 315 315 314 314 313 312 312 311 311 311 311 310 310 309 310 311 314 317 317 317 319 321 323 324 324 324 325 324 323 323 321 321 320 319 318 318 317 317 317 317
318 321 319 318 323 322 321 323 324 324 322 319 318 322 325 323 320 319 314 312 313 313 313 314 314 315 316 316 318 317 316 316 315 316 317 317 317 317 317 317 316 316 316 317 317 317 317 316 316 316 316 317 316 316 316 316 316 315 315 314 314 314 313 313 313 312 312 311 311 310 309 309 312 315 317 317 317 319 321 322 323 323 323 324 324 323 322 321 321 321 320 318 317 317 316 317 317
317 318 319 322 324 318 317 320 318 317 317 316 318 321 320 316 316 316 314 313 313 312 312 312 313 315 314 315 317 316 316 315 315 317 318 318 318 317 317 317 316 317 316 317 317 316 317 316 316 316 316 316 316 316 316 316 316 315 315 315 314 314 314 314 314 314 313 312 311 310 309 309 311 313 314 316 318 319 321 321 320 320 322 323 322 322 322 321 321 320 319 318 317 316 316 316 317
320 321 319 319 320 320 323 323 318 316 316 317 317 315 314 313 314 315 316 315 315 316 316 313 312 314 313 315 316 315 316 315 316 318 318 317 316 316 316 316 316 316 316 317 317 316 317 317 317 317 317 317 316 316 316 316 316 315 315 315 315 314 314 314 314 314 314 313 312 311 309 309 309 309 311 315 318 318 319 318 318 319 321 322 322 322 322 321 320 319 318 318 316 316 316 316 316
319 321 318 320 323 324 324 321 319 318 316 319 320 315 313 313 312 314 316 316 316 317 319 317 314 313 313 315 315 315 316 316 317 318 316 316 315 315 316 316 316 316 316 317 317 316 317 317 317 317 316 317 316 316 316 316 316 316 315 315 314 314 315 314 314 314 313 313 312 311 310 309 308 308 310 315 317 317 317 317 318 321 322 320 321 322 321 320 319 318 317 317 317 316 316 315 314
317 317 315 320 325 324 323 320 319 320 317 317 317 314 314 314 313 315 316 318 317 316 319 319 314 313 315 315 315 317 317 317 318 317 316 315 315 316 316 316 317 317 317 317 316 317 317 317 318 317 316 316 316 316 317 317 317 316 316 316 315 314 314 314 314 314 314 313 312 312 310 309 308 308 310 314 316 316 317 319 319 321 321 320 319 320 321 320 318 317 316 316 316 316 315 314 313
319 319 318 319 319 319 322 320 319 321 319 318 315 313 314 313 314 316 316 318 319 317 320 318 311 312 315 316 317 318 316 317 318 316 315 316 315 315 315 316 316 317 317 317 316 317 317 317 317 317 316 316 316 317 317 317 317 317 317 317 316 315 314 314 314 314 314 314 313 312 311 309 308 308 310 314 315 314 317 320 320 320 321 321 320 321 321 319 317 316 315 315 315 315 315 313 312
318 318 319 318 317 318 319 317 318 319 320 323 319 314 314 313 314 317 317 318 318 316 317 316 313 314 315 316 317 317 316 317 318 316 315 316 315 315 315 316 316 316 317 317 317 317 317 317 317 317 317 317 317 317 317 317 317 317 317 317 316 316 314 314 314 314 315 314 313 313 311 310 308 308 311 313 314 314 317 319 319 319 319 319 320 320 319 317 316 316 314 314 314 314 314 312 310
Wind_Speed
4 7 7 7 5 4 2 1 1 2 3 3 1 2 1 2 3 4 4 3 3 4 7 7 9 12 8 10 13 12 9 2 3 2 4 11 18 15 12 14 14 14 14 13 13 12 11 12 14 14 14 13 12 12 10 10 9 10 9 8 8 7 7 8 9 10 11 13 13 14 14 14 14 13 12 12 12 14 14 15 17 18 17 18 16 13 12 14 15 16 15 15 15 15 16 17 18
4 6 6 6 5 2 2 1 1 2 4 3 2 2 3 2 5 4 5 3 4 6 7 9 10 12 13 16 12 10 10 6 3 9 14 21 21 14 13 15 15 15 14 13 13 12 12 14 15 14 14 13 12 12 11 10 9 9 8 7 6 6 6 7 8 9 11 12 13 13 14 14 14 13 12 11 13 15 15 16 18 17 16 17 14 11 11 14 16 17 17 17 17 17 17 18 18
5 5 5 5 2 2 4 1 1 2 4 3 3 2 2 5 5 4 5 8 10 11 10 10 8 7 9 11 6 5 5 4 7 16 22 24 22 18 16 16 16 15 15 14 12 11 12 14 14 14 14 13 12 12 11 10 9 8 7 6 5 5 6 6 8 9 11 12 12 13 14 14 14 14 12 11 13 15 15 15 17 15 15 14 13 12 13 15 17 17 18 18 18 18 18 19 18
5 5 5 3 2 1 1 2 2 4 3 3 2 3 3 7 6 4 9 12 12 11 9 8 6 5 8 9 8 9 7 6 7 14 24 25 22 22 17 17 18 16 15 14 13 12 12 13 13 13 14 13 12 12 11 10 9 7 6 6 5 5 5 6 7 9 10 11 12 12 14 14 14 14 13 12 13 15 16 16 16 15 14 14 13 13 15 16 17 18 18 18 18 19 19 19 18
6 6 4 3 2 1 1 2 1 5 2 4 2 1 4 7 7 6 9 11 9 8 7 5 3 5 9 8 7 9 8 10 9 13 24 24 22 23 18 16 17 17 17 15 14 13 13 13 13 13 13 13 12 11 10 9 8 6 5 6 5 5 5 6 8 9 10 10 11 12 13 14 14 14 13 13 13 15 17 16 15 15 15 13 12 14 16 17 18 18 18 18 18 19 19 19 18
7 7 5 5 3 2 1 3 2 4 1 4 4 4 6 7 9 10 10 9 8 8 8 7 6 7 8 8 9 12 11 9 11 16 24 24 23 24 20 17 16 16 16 16 15 14 14 14 14 14 14 13 12 11 10 8 7 6 5 6 5 5 5 6 7 8 9 9 10 11 12 13 13 13 14 13 13 13 15 15 14 13 14 13 13 15 17 17 18 18 18 18 18 18 19 19 18
7 6 3 4 3 1 3 4 2 2 1 2 6 6 6 9 14 14 10 7 6 7 9 7 9 9 6 7 10 11 11 7 9 15 21 22 24 24 22 19 16 14 14 14 14 13 13 13 14 14 14 13 12 11 10 9 7 6 6 6 6 5 5 5 6 8 8 8 9 9 11 11 12 13 13 13 13 13 13 13 12 12 13 13 14 16 17 18 18 18 17 18 17 17 18 17 16
6 3 1 1 1 2 3 4 2 3 1 2 6 9 11 14 17 13 6 5 4 5 8 7 10 8 4 7 7 9 13 9 6 10 16 19 23 24 22 20 16 14 13 13 12 12 13 12 13 13 13 13 12 12 10 9 7 6 6 7 6 6 5 5 6 7 8 8 8 8 10 11 11 12 13 13 13 13 13 13 13 14 14 14 15 16 17 17 18 17 17 17 17 16 16 16 15
5 3 1 1 1 3 2 2 1 2 1 3 6 11 17 17 15 11 5 5 8 7 8 8 7 6 5 8 8 9 13 10 7 8 13 15 21 24 22 20 16 15 13 12 12 11 12 12 12 12 13 12 12 12 11 9 7 7 7 8 7 6 6 5 5 6 7 7 7 8 8 10 10 11 12 12 13 13 13 14 14 15 16 16 16 16 17 18 18 17 17 17 16 16 15 14 14
3 3 2 2 1 3 2 0 1 2 2 4 7 13 18 17 15 13 10 7 9 9 8 7 6 8 9 9 9 8 9 11 8 10 12 13 20 24 22 18 15 15 14 13 12 12 12 12 13 13 13 12 12 12 11 10 8 7 8 8 8 7 6 5 4 5 6 6 6 7 7 8 9 10 11 12 12 13 13 14 15 16 16 16 17 18 18 19 18 17 17 17 16 15 14 13 13
2 3 1 3 3 2 1 2 3 3 3 3 5 11 14 15 14 12 12 10 11 12 9 7 5 11 11 7 8 8 9 10 7 10 13 14 20 24 22 18 16 16 15 14 13 12 12 12 14 13 13 13 12 12 11 10 8 8 8 9 9 7 6 5 4 4 4 5 6 6 6 7 8 9 10 11 12 12 13 14 15 16 17 17 18 19 19 19 18 17 17 16 15 15 14 13 12
2 1 2 3 1 1 2 4 5 3 4 3 2 7 9 10 9 8 12 10 11 11 9 7 5 10 8 4 8 9 9 10 8 10 14 18 23 24 22 20 18 17 16 15 13 13 12 12 14 14 13 13 12 12 12 11 9 9 9 9 9 8 7 5 4 3 3 4 5 5 6 7 7 8 9 10 11 12 13 14 15 16 16 17 18 19 19 19 18 17 17 16 15 14 13 13 12
2 1 5 1 3 3 3 5 5 3 2 3 4 8 9 7 6 9 13 11 12 10 7 7 7 7 5 4 8 9 10 11 11 12 15 21 25 24 23 22 20 19 18 16 14 14 13 13 14 14 14 13 13 12 11 11 10 9 9 9 9 9 8 7 5 4 4 4 4 5 6 6 6 6 7 8 10 11 12 13 14 15 16 17 17 18 18 17 17 17 17 16 15 13 13 12 11
3 3 4 2 2 1 4 4 3 4 1 5 7 11 11 8 5 8 12 8 7 9 8 8 8 6 5 6 8 11 12 13 14 14 17 22 25 24 23 23 21 20 20 18 17 15 14 14 15 15 15 14 13 12 11 11 11 10 9 9 9 9 9 8 7 5 5 4 4 4 5 5 6 6 6 7 8 9 10 11 12 13 14 15 15 16 16 15 15 16 16 14 13 13 12 11 10
4 4 3 1 3 2 1 2 4 5 2 3 9 14 11 8 5 5 9 6 4 11 11 8 8 4 5 6 6 13 13 13 16 16 18 21 22 22 23 24 23 21 20 19 18 17 16 15 16 16 16 15 14 13 12 12 12 11 10 10 10 9 10 9 8 7 6 5 4 4 4 4 5 6 5 6 7 8 9 9 10 11 11 13 13 13 14 13 13 14 14 13 12 12 11 10 9
4 3 4 2 2 2 2 2 4 4 2 4 11 14 9 5 5 5 5 6 9 13 10 6 7 3 5 7 5 10 11 13 17 16 18 19 19 20 22 23 23 23 21 19 18 18 18 16 17 18 18 16 15 15 14 13 13 12 12 12 11 10 10 10 9 9 7 6 5 5 4 4 4 5 5 5 6 7 8 8 8 9 10 10 10 11 11 11 11 12 12 12 11 11 10 9 8
2 1 4 1 1 1 2 1 3 3 4 5 11 12 7 3 5 6 5 7 11 11 7 5 7 5 6 6 7 9 10 13 16 17 18 18 18 19 21 23 24 24 23 21 19 19 19 18 18 18 18 18 17 16 16 15 14 13 13 13 12 11 11 10 10 9 9 7 7 7 6 5 4 4 4 5 5 6 6 7 8 8 8 8 8 9 9 9 10 10 10 10 10 10 9 8 7
1 2 3 1 2 0 3 4 5 5 4 7 12 13 9 6 7 7 6 6 9 8 7 7 7 7 6 6 7 7 9 13 15 16 17 17 18 18 20 22 23 25 25 24 22 20 19 20 20 19 19 19 19 18 17 17 16 15 14 14 14 13 12 12 11 10 10 9 9 9 8 6 5 5 4 4 5 5 6 6 7 8 8 7 7 7 7 8 8 9 9 9 9 8 8 8 7
2 2 3 3 4 1 5 1 3 5 7 11 13 14 9 8 12 10 5 5 8 6 6 7 7 8 8 8 9 8 8 12 15 15 16 16 17 17 18 20 22 24 25 25 23 22 20 20 21 21 21 21 21 20 19 19 17 17 16 16 15 15 14 13 13 12 11 11 11 10 9 8 6 6 5 5 6 6 6 6 6 7 8 8 7 7 7 7 7 8 8 8 7 7 7 8 8
3 2 2 4 5 2 7 6 4 4 13 14 11 12 6 7 14 11 5 5 6 7 8 9 10 12 12 12 12 11 10 11 14 15 15 16 16 16 17 18 20 20 21 23 23 21 21 21 21 21 22 22 22 21 21 21 20 19 18 17 17 17 16 15 15 14 13 13 13 12 12 10 9 8 7 6 7 6 6 6 6 7 8 8 8 8 8 8 8 8 8 7 7 6 6 7 8
3 3 4 5 3 2 5 5 7 6 14 15 11 9 5 9 13 11 7 4 4 11 15 13 12 14 15 16 16 14 13 13 14 15 15 15 16 17 17 17 17 17 18 21 22 21 20 21 21 21 22 23 23 22 22 21 21 20 19 19 18 18 18 17 17 16 15 15 15 14 14 13 12 11 10 9 8 8 7 6 6 6 7 8 8 8 8 9 9 8 7 7 7 6 5 5 7
2 2 3 1 2 3 2 2 6 7 11 13 10 7 7 10 10 10 9 5 4 11 17 17 14 14 14 15 17 17 16 15 15 15 15 15 15 16 17 18 18 18 20 21 21 20 20 20 21 21 22 23 23 24 23 22 22 21 20 20 20 20 19 19 19 18 17 17 17 16 17 16 14 13 12 12 11 10 8 8 7 7 8 8 8 8 9 10 9 8 7 7 7 6 5 4 5
2 1 3 5 2 4 1 1 4 5 9 10 7 5 8 9 6 9 12 10 6 4 8 13 12 11 14 15 16 18 18 17 16 15 14 14 14 15 15 17 18 19 20 21 21 21 21 20 21 22 23 24 24 25 25 25 24 23 22 20 21 22 21 21 21 20 18 18 19 19 19 18 17 15 15 15 13 12 10 9 8 8 9 10 10 9 9 10 9 8 8 7 7 6 6 3 3
4 1 1 5 3 4 2 3 4 4 6 6 5 5 6 7 4 6 11 14 10 6 5 7 7 6 12 16 16 16 15 15 14 13 13 13 13 13 14 15 16 18 20 21 21 22 22 21 21 22 24 24 24 25 27 27 26 26 24 23 23 23 22 22 22 21 20 19 20 21 20 19 18 17 17 17 16 14 12 11 10 10 10 10 11 11 10 9 9 9 9 9 8 7 6 4 3
3 2 2 5 3 3 2 3 5 3 3 3 3 4 4 5 5 5 12 15 14 13 11 10 9 5 9 13 14 14 14 13 12 12 14 14 14 14 16 16 16 18 20 20 21 22 23 23 23 23 24 23 23 24 26 28 28 28 27 27 25 24 24 23 22 22 21 21 21 22 22 21 21 19 18 18 17 16 14 13 12 12 11 11 11 13 11 9 10 11 10 10 10 8 8 6 4
2 5 6 6 4 3 3 3 4 3 1 1 2 2 1 3 3 8 15 16 15 17 15 14 12 10 10 11 12 13 14 13 13 13 13 13 15 17 18 18 19 20 19 19 20 21 22 22 23 24 24 23 22 22 23 26 29 29 29 29 28 26 26 24 23 23 22 22 23 23 23 23 23 22 21 19 19 17 15 14 14 15 13 12 12 12 11 9 10 11 10 11 11 10 9 8 6
4 10 8 7 5 4 3 2 4 4 1 0 1 2 3 2 2 6 11 9 12 18 18 16 14 14 13 13 14 14 15 15 14 14 14 15 17 19 19 20 21 20 20 20 20 20 20 22 22 23 24 23 23 22 21 23 27 29 29 30 30 29 28 26 25 25 24 23 24 24 23 23 24 25 24 22 21 20 18 17 17 17 15 14 14 12 10 9 10 12 12 11 11 11 11 9 8
10 13 7 4 4 2 3 3 4 4 1 1 1 3 5 2 3 12 15 6 8 15 19 18 17 16 15 15 15 16 17 17 16 17 18 19 20 20 20 21 22 21 21 21 20 19 20 21 22 23 24 24 24 24 22 22 25 27 29 29 30 31 30 29 27 26 26 25 24 24 25 24 25 25 25 24 23 22 20 19 18 18 17 17 16 13 11 10 11 13 14 12 11 12 12 11 9
11 10 4 1 2 1 5 5 5 4 2 1 2 4 6 2 8 20 19 11 9 11 17 19 18 18 16 16 17 17 18 17 18 20 21 21 21 21 21 21 21 22 22 21 20 21 21 21 22 23 24 25 25 25 23 23 24 25 27 29 29 30 31 31 31 30 28 27 26 25 26 26 25 25 26 25 24 24 23 21 20 20 19 18 17 14 13 13 12 14 16 14 13 13 13 14 12
6 3 4 2 5 4 7 6 5 4 2 2 3 2 7 5 13 20 16 13 13 12 15 19 18 18 17 16 16 17 17 18 20 21 21 20 20 20 21 21 21 22 22 22 23 23 22 22 22 23 24 25 25 25 25 24 25 26 27 28 28 29 31 31 32 33 31 29 28 27 27 27 27 26 27 27 27 26 25 23 22 21 21 20 19 17 15 16 15 16 19 18 14 15 15 15 14
2 1 3 2 2 4 6 4 7 5 2 3 5 1 7 8 13 16 12 12 15 15 16 17 17 16 16 16 16 17 17 18 20 20 20 20 20 20 20 20 21 23 24 25 25 25 24 24 24 24 24 25 26 26 26 25 25 26 27 28 28 29 31 31 31 33 34 33 31 29 29 29 29 28 28 28 28 28 26 24 22 22 22 22 22 21 18 18 18 18 21 21 18 17 16 16 15
2 2 3 3 3 4 6 2 8 5 3 4 5 1 7 9 11 8 5 10 13 14 15 14 15 15 16 17 17 18 18 18 20 21 21 21 21 21 21 21 22 23 24 25 25 25 26 26 26 26 25 25 26 26 26 25 26 26 27 28 28 29 30 31 31 31 33 35 35 34 33 31 31 30 29 28 28 29 28 25 24 22 23 25 25 25 23 21 21 20 21 23 21 19 18 18 18
3 3 2 3 2 3 4 2 4 5 2 2 2 2 4 5 4 1 3 7 10 11 12 13 14 15 16 17 18 20 20 20 22 22 22 21 22 22 21 21 21 23 24 25 25 26 27 27 27 27 27 26 26 26 26 26 26 27 27 28 29 30 30 30 30 31 32 34 35 37 37 35 33 31 30 29 29 31 30 28 26 23 25 26 27 29 28 24 24 23 23 25 24 20 19 21 21
3 1 2 4 3 3 2 3 2 4 4 1 2 3 6 7 10 12 8 8 9 12 14 16 15 16 17 17 19 22 23 24 26 26 24 22 22 21 21 20 19 20 22 24 25 26 26 27 27 27 27 27 26 26 26 26 27 27 28 29 30 31 31 31 31 32 32 32 32 34 36 36 35 33 31 30 30 32 32 30 26 24 25 26 28 31 30 27 26 26 26 26 25 23 21 22 22
3 3 2 3 2 3 3 3 2 2 3 2 3 4 9 10 15 22 23 18 16 18 20 21 20 21 21 20 22 23 25 28 30 29 27 25 24 23 23 22 21 20 20 22 24 26 26 27 27 27 27 28 27 27 27 27 28 28 29 30 32 33 33 33 32 33 33 32 31 31 32 34 34 33 31 31 32 33 33 30 27 25 25 26 30 32 30 29 30 31 31 28 26 26 23 23 23
6 6 5 3 2 2 3 3 2 1 2 4 6 7 9 10 11 18 25 24 20 21 23 24 25 25 25 24 25 26 28 31 31 29 28 27 26 26 25 25 24 23 22 22 23 25 26 26 27 28 28 28 28 29 28 29 30 31 32 32 34 35 35 34 34 34 33 32 31 31 32 33 32 32 31 33 35 36 35 33 30 27 27 28 31 33 31 29 30 32 33 31 30 30 27 26 25
6 5 4 3 3 2 3 2 4 2 2 5 7 7 10 10 10 14 24 25 18 18 20 23 26 27 27 27 28 29 31 32 30 29 28 27 27 26 26 26 26 26 26 25 25 26 26 26 27 27 26 27 29 30 30 30 32 33 33 34 35 35 35 35 35 34 33 33 32 32 34 33 31 30 32 36 38 38 37 35 32 29 29 29 32 35 32 29 30 32 33 34 35 35 32 30 28
5 5 4 3 1 2 2 1 5 3 2 5 4 6 11 11 10 14 20 17 16 19 20 23 27 28 28 28 30 32 33 33 31 29 28 27 27 27 26 27 28 28 28 28 27 26 26 26 26 25 25 26 27 28 30 31 32 32 33 34 34 34 34 35 34 34 33 33 33 33 34 34 32 31 34 38 38 37 34 33 32 30 30 30 34 38 34 30 31 34 35 36 37 38 34 32 31
5 4 4 2 1 2 2 3 4 2 2 4 5 6 12 13 9 13 17 17 22 26 24 25 27 27 29 30 32 34 34 34 31 29 27 26 26 26 27 28 28 28 28 28 28 28 28 28 27 26 27 28 27 28 30 31 31 31 33 33 33 34 35 35 34 34 34 35 35 34 35 36 36 35 37 39 37 35 33 33 33 31 30 30 33 36 33 31 33 35 38 39 39 38 34 32 31
4 4 5 1 3 1 2 4 4 1 1 3 4 5 11 12 7 9 17 21 25 27 24 26 26 26 29 30 32 34 34 33 31 28 26 24 25 24 25 26 27 28 28 28 28 28 29 30 29 29 30 30 30 30 31 31 31 32 33 34 34 35 35 35 35 35 36 36 36 36 36 38 39 40 41 42 43 42 39 36 33 31 31 32 32 32 32 33 35 37 40 43 44 41 36 34 32
1 3 6 3 2 2 2 2 3 3 4 3 4 5 8 7 4 6 10 10 13 17 16 20 23 24 27 28 29 30 31 30 29 27 25 24 24 23 22 23 25 26 27 27 27 27 27 28 28 29 30 31 32 31 31 31 32 33 34 36 36 37 37 37 38 37 37 37 36 37 37 39 41 42 42 43 43 43 40 37 34 31 32 33 32 32 31 31 34 39 43 46 46 42 38 36 34
4 1 5 6 5 5 2 3 5 5 5 4 4 4 6 6 6 7 7 6 9 12 10 15 21 22 24 27 28 28 26 25 24 23 22 22 21 20 20 22 24 25 25 25 25 25 25 25 26 26 27 30 31 32 31 32 33 34 36 37 38 39 39 40 39 38 37 36 36 36 36 38 41 43 43 42 42 41 37 35 34 33 33 34 33 32 30 30 34 38 43 44 42 40 39 38 35
1 4 4 6 7 6 4 5 4 1 3 4 3 2 6 8 9 10 8 9 12 12 10 16 24 25 26 29 28 26 23 20 19 19 19 19 19 20 20 21 22 23 22 22 23 23 23 23 23 23 25 27 29 30 31 33 34 35 36 37 38 38 39 39 37 36 36 35 34 34 36 37 37 40 42 43 43 41 36 34 34 35 35 35 34 32 31 31 31 33 37 38 37 39 40 38 35
2 5 4 6 7 6 5 6 3 2 3 5 3 3 3 7 10 9 7 9 10 10 11 15 23 29 30 29 27 24 20 15 12 12 13 14 15 16 17 18 19 19 19 20 20 20 20 21 21 22 23 25 26 28 29 32 33 35 36 36 37 37 37 37 35 35 34 33 33 33 35 36 36 36 38 40 42 39 35 34 35 36 36 36 34 33 33 32 30 30 33 35 36 38 39 37 35
5 5 5 6 7 6 5 6 2 1 2 5 4 2 2 6 8 7 4 5 8 9 12 12 19 26 26 23 21 17 12 9 6 6 6 7 7 8 10 12 13 14 14 15 15 15 16 18 19 21 22 23 24 26 28 30 31 32 33 34 35 36 35 35 34 35 34 32 32 32 33 34 35 36 37 38 39 38 36 35 36 35 35 35 34 33 32 32 32 30 31 35 39 39 37 38 37
4 4 5 5 5 5 5 5 3 3 2 5 5 3 2 6 6 5 2 3 7 9 9 9 14 19 19 16 13 9 7 6 4 4 5 4 2 3 5 6 7 8 9 10 10 11 13 14 16 18 19 20 22 24 26 27 29 30 31 32 34 34 34 34 34 35 35 33 32 32 33 33 35 36 37 38 39 39 38 38 38 36 35 36 35 33 32 32 31 30 30 33 37 38 38 39 39
7 6 7 7 6 5 4 3 4 3 4 6 7 8 5 5 6 4 4 5 7 5 5 7 7 7 6 5 6 8 5 3 3 4 5 4 2 3 4 5 4 5 6 8 8 10 11 12 14 15 16 17 19 21 23 25 26 27 28 29 31 31 31 32 34 35 35 34 33 33 33 33 34 35 36 38 39 39 39 40 39 36 36 36 35 35 36 34 31 30 30 32 35 36 36 37 38
7 5 5 4 4 4 5 5 4 1 6 6 5 5 5 5 6 4 5 7 6 3 3 5 3 4 7 8 8 6 3 4 5 5 5 5 4 4 6 7 6 6 8 8 9 10 11 12 14 15 15 16 17 19 21 22 24 24 25 26 27 28 29 30 32 34 34 34 34 34 35 34 35 35 37 38 38 37 37 38 38 37 38 37 36 38 39 34 30 30 31 32 35 36 36 37 38
5 5 6 4 2 3 3 3 0 3 6 4 3 0 3 6 6 5 8 9 5 0 4 2 2 5 8 8 3 3 6 7 7 7 7 7 6 6 8 9 9 9 10 10 12 13 14 15 15 16 16 16 17 19 20 21 22 22 22 23 24 25 26 28 30 32 34 33 33 34 35 36 36 37 39 39 38 36 35 35 36 37 39 39 40 40 37 32 29 30 30 31 33 35 38 40 39
4 5 6 5 3 2 3 4 2 4 5 4 2 1 3 5 4 7 10 10 8 6 6 4 3 4 5 4 6 8 10 11 11 10 9 8 7 8 10 11 10 10 11 12 14 16 18 18 18 17 16 17 18 18 19 20 20 20 20 21 22 22 24 26 28 31 33 32 32 33 35 36 37 38 39 39 37 36 35 35 36 37 38 40 40 38 36 33 31 32 32 32 32 32 35 40 39
5 5 6 6 5 5 4 4 3 4 4 4 3 1 3 2 3 7 7 7 11 12 11 11 10 8 6 7 10 11 13 13 12 12 11 9 8 9 10 11 12 12 11 13 15 17 20 20 20 19 17 17 17 17 17 18 17 18 19 19 20 20 21 23 26 29 31 32 31 31 33 34 35 37 37 37 36 36 37 37 37 36 38 40 39 39 38 36 35 36 35 33 32 31 33 37 39
3 3 5 4 5 5 3 3 6 4 1 3 2 3 5 4 6 9 8 11 14 17 19 19 22 22 18 17 16 14 15 13 11 11 10 9 8 9 10 12 13 14 15 16 17 18 19 20 20 19 17 16 15 15 14 14 14 15 16 17 17 18 19 21 24 26 28 30 31 31 31 32 32 34 35 34 35 38 39 39 39 38 39 41 42 41 39 39 40 40 36 32 32 32 34 38 40
2 3 4 5 5 7 3 3 0 3 2 4 2 5 6 3 7 10 9 9 8 11 15 16 20 21 21 24 21 17 16 14 13 12 9 8 9 11 13 15 17 19 21 22 21 19 18 19 19 17 16 15 13 12 12 12 12 13 14 14 14 15 17 19 21 23 25 27 29 31 31 31 31 32 32 33 34 38 40 40 39 39 41 43 43 40 40 41 41 39 36 34 31 31 37 41 42
5 4 6 3 2 3 3 1 2 2 4 4 2 7 6 3 6 4 3 2 3 6 8 9 13 14 18 24 22 19 15 12 13 11 8 10 11 13 15 18 21 25 28 28 24 20 18 18 17 17 15 13 11 10 11 11 11 11 11 11 12 13 15 17 19 21 23 25 27 30 31 32 32 31 32 32 32 33 36 38 38 38 40 41 40 39 41 41 39 36 36 36 32 32 37 42 43
5 4 4 4 2 1 2 2 2 1 3 4 3 5 5 6 7 1 3 6 7 8 7 5 9 13 16 19 18 14 8 8 10 8 9 10 12 14 17 21 26 30 31 31 27 20 18 17 16 16 14 12 12 12 11 10 9 9 10 11 12 13 14 15 17 19 22 24 26 28 30 32 33 31 32 33 32 31 32 35 36 36 37 37 37 39 42 41 39 37 37 36 36 36 39 42 43
2 2 2 2 3 4 4 3 4 4 3 4 4 3 5 8 6 6 5 7 6 9 8 6 11 15 15 12 8 5 6 10 9 4 5 9 12 14 18 22 26 31 33 32 28 20 17 17 16 15 15 14 14 13 10 9 8 8 10 11 12 13 14 16 17 18 21 23 25 27 29 31 32 32 33 34 34 32 32 34 37 38 39 40 40 42 45 45 40 36 35 35 36 37 41 42 42
2 3 3 2 1 2 2 1 2 5 4 3 3 6 8 6 5 7 8 8 8 8 5 3 5 7 5 2 2 5 11 13 7 3 4 8 11 16 18 21 23 27 33 35 30 22 17 18 18 16 17 17 15 13 11 9 9 10 10 10 12 13 15 17 17 18 20 22 24 26 28 30 31 32 34 35 34 34 34 34 37 39 40 41 42 44 47 45 38 33 34 35 35 37 42 42 41
7 7 7 7 5 4 2 3 2 2 4 4 3 7 12 5 6 7 8 7 7 6 4 4 5 6 6 6 6 8 13 14 7 4 6 9 12 17 20 20 22 27 33 36 33 25 20 20 19 18 19 18 16 13 12 11 11 12 11 11 13 14 16 17 18 19 20 21 23 25 27 29 31 32 33 35 35 35 35 35 36 37 37 38 41 46 47 42 36 34 35 35 36 39 42 42 41
Wind_Direction
201 199 211 222 230 233 277 355 22 315 73 89 232 103 204 185 124 112 107 97 81 64 89 103 79 77 94 114 114 94 62 61 176 144 155 153 152 159 154 156 166 161 155 150 150 148 147 148 144 138 135 134 132 131 128 124 119 112 103 93 84 76 65 54 45 44 55 68 70 64 60 57 56 58 63 72 78 82 86 89 87 87 90 87 85 91 95 95 97 99 98 100 103 102 101 100 100
214 207 223 236 236 270 316 95 92 353 60 60 308 130 163 31 63 119 140 120 126 133 112 105 91 85 109 120 111 80 48 26 133 136 135 144 151 159 154 161 168 159 155 151 150 146 143 146 146 142 138 138 137 135 132 129 125 117 112 110 99 84 70 56 47 50 64 74 72 66 62 58 59 59 64 71 75 83 89 94 96 96 98 97 99 97 96 100 100 100 101 103 106 106 105 105 104
223 216 224 244 250 298 302 355 103 82 77 89 278 278 93 77 101 147 134 124 127 128 114 107 101 76 90 101 74 77 92 58 119 133 138 151 157 160 162 164 162 156 156 153 153 148 143 148 150 146 142 143 142 139 137 136 133 126 123 124 113 95 76 58 51 56 70 78 73 67 62 59 62 61 65 73 78 86 88 90 95 98 103 107 104 96 98 105 105 103 105 106 109 110 110 110 109
225 222 223 260 3 325 323 60 137 113 96 152 236 293 94 118 142 139 120 125 129 123 114 108 94 61 66 92 95 93 120 127 137 144 148 159 163 161 163 162 159 155 156 156 157 153 149 152 155 151 147 147 145 142 140 139 138 135 131 132 124 102 80 63 60 63 75 79 72 66 62 60 62 64 65 72 80 90 92 87 88 88 94 102 102 99 100 105 109 108 109 110 113 114 113 113 113
223 221 225 277 351 312 90 62 93 94 132 180 168 216 139 138 144 131 122 126 130 120 119 119 98 95 80 91 112 106 129 140 150 160 151 159 165 157 158 165 160 156 158 158 161 160 156 157 159 157 152 151 148 145 143 141 140 142 140 140 132 108 85 70 69 70 78 79 73 65 62 60 61 64 64 70 80 93 101 97 93 93 94 98 102 107 105 107 111 110 112 114 115 116 115 115 115
215 214 231 273 290 271 81 58 59 76 207 168 130 168 153 145 139 126 116 115 120 117 121 119 118 125 89 80 107 123 144 145 150 162 153 158 169 159 158 170 165 161 161 157 164 165 162 161 162 163 158 155 152 150 149 146 144 149 148 143 137 114 90 77 76 75 80 81 75 67 63 63 62 64 64 68 75 86 99 103 104 107 108 104 102 106 107 108 108 109 113 114 115 116 115 116 115
212 212 232 280 287 283 89 101 140 107 347 121 129 157 156 142 134 126 118 109 109 122 122 117 129 123 95 111 111 124 155 162 149 164 160 159 171 168 164 168 167 169 161 155 164 166 168 167 164 166 164 161 158 157 157 155 154 157 155 148 139 120 100 85 84 80 81 82 78 71 66 66 66 65 67 69 74 80 89 100 106 112 116 113 107 105 106 108 108 109 111 110 112 113 116 118 117
212 238 273 345 14 35 88 111 171 161 22 49 122 145 145 141 138 135 141 139 142 150 129 129 135 114 116 144 118 131 155 167 161 170 170 163 170 176 168 161 166 173 165 160 166 170 176 176 170 170 170 168 165 163 163 162 164 164 160 155 144 127 114 97 92 86 84 84 82 77 69 69 70 68 69 71 75 80 84 92 99 105 111 112 110 108 108 109 109 109 109 109 109 110 114 119 121
213 277 293 96 17 13 70 94 92 144 98 72 111 140 141 143 148 144 151 148 152 156 140 142 132 126 148 124 114 149 162 171 171 169 176 168 167 174 166 156 168 175 168 168 172 177 181 184 182 177 176 176 172 169 168 168 171 172 164 162 155 138 126 112 103 92 88 89 86 82 75 72 74 74 73 76 79 82 87 92 97 102 107 109 109 107 106 106 105 106 106 106 106 107 109 112 117
216 260 270 73 32 10 55 109 69 122 148 127 119 144 146 151 157 148 143 137 148 147 145 150 125 141 148 116 121 155 171 172 170 172 176 170 165 167 161 158 174 175 171 176 177 183 185 190 190 185 184 184 180 175 174 174 178 179 168 167 166 151 139 129 117 100 91 90 91 87 81 76 76 78 75 78 82 84 88 93 97 100 104 106 106 105 103 102 102 103 102 103 104 103 104 108 112
235 251 269 61 46 350 182 157 137 135 142 124 109 144 151 159 157 144 138 132 144 143 150 160 134 140 133 122 139 142 164 172 173 173 169 167 166 164 161 165 180 178 178 184 182 189 189 191 193 190 189 190 189 180 177 179 180 182 174 173 174 165 154 144 134 117 96 89 95 91 83 79 76 80 77 78 82 86 91 95 99 101 104 105 105 104 102 100 101 101 100 101 103 104 106 109 110
264 274 82 83 157 260 185 143 154 150 118 118 129 156 156 161 150 138 141 139 147 149 165 169 157 147 121 114 148 142 162 170 166 169 164 162 167 168 166 172 184 184 183 189 189 193 193 195 195 192 190 192 193 187 182 181 181 185 180 179 180 175 166 161 156 141 119 99 99 97 89 85 82 83 81 81 85 90 95 99 103 104 106 107 106 104 100 98 98 97 97 100 102 104 108 112 115
262 357 86 127 212 166 140 137 157 124 112 184 178 166 162 164 155 152 149 146 152 152 167 163 161 154 109 111 149 161 172 172 165 164 162 159 168 175 173 177 189 190 186 190 194 194 193 196 197 195 193 192 195 192 188 185 185 187 186 185 186 184 177 176 178 174 160 133 115 107 99 96 96 92 88 87 88 94 100 103 105 105 107 108 106 102 98 96 94 92 93 97 100 102 107 113 116
263 345 97 184 283 136 139 122 136 115 211 237 170 161 161 168 174 167 152 140 154 157 157 156 159 145 116 127 159 186 180 173 167 164 166 164 174 181 178 182 192 196 191 192 196 197 195 195 198 199 198 196 197 195 193 192 190 191 190 189 189 190 188 187 190 194 188 163 142 125 113 111 112 108 101 97 94 98 106 108 106 105 107 109 107 102 97 95 91 90 93 96 96 99 105 111 111
254 326 82 132 346 335 183 135 138 125 198 226 159 161 155 166 182 166 152 143 149 154 155 158 161 146 162 173 190 193 181 169 168 171 174 174 183 186 185 187 194 200 197 197 199 201 200 199 200 201 202 201 200 199 199 198 195 195 195 194 194 195 195 193 195 202 202 183 169 158 143 133 131 129 123 116 108 107 112 117 114 110 111 113 112 107 103 99 94 93 95 95 95 99 106 112 111
251 309 61 64 332 310 272 156 121 108 216 193 161 162 147 161 169 129 137 157 149 150 159 169 170 148 165 177 168 173 172 169 172 178 180 183 192 192 192 194 198 202 202 201 202 204 204 205 204 204 206 205 205 203 203 202 200 200 198 198 199 202 203 199 198 205 209 202 198 190 181 173 158 147 141 138 129 121 120 126 127 121 120 120 119 117 112 106 100 98 96 94 94 96 103 111 111
251 311 60 26 271 201 245 214 144 146 199 183 169 169 148 151 161 126 119 148 151 153 157 155 167 155 146 146 123 141 162 172 176 182 184 189 197 197 198 200 202 205 206 205 207 210 209 208 209 209 209 208 209 208 206 205 204 205 204 202 202 206 209 206 203 207 211 211 214 212 203 196 192 177 164 160 151 140 132 134 139 139 136 132 129 126 120 114 108 103 100 97 93 89 93 102 104
199 117 98 219 230 178 265 229 179 144 154 179 180 176 155 159 174 151 132 139 147 154 163 161 169 171 169 151 132 138 158 176 183 185 190 194 199 201 202 205 208 211 212 213 215 217 214 213 214 213 214 212 211 213 211 207 207 209 210 208 206 208 210 209 208 212 214 215 221 224 217 209 209 201 186 181 173 161 152 146 146 151 154 152 148 143 135 128 121 115 111 106 98 87 84 95 102
188 120 125 218 206 71 353 338 146 118 154 173 179 181 170 181 181 167 173 178 162 156 164 172 172 171 181 177 167 167 165 179 188 190 197 200 203 206 205 209 212 214 217 220 223 223 220 219 220 218 217 217 215 216 214 211 211 212 213 214 212 212 212 212 214 217 216 220 225 229 228 219 216 211 201 192 187 181 177 169 161 160 164 170 169 166 159 148 140 133 129 123 110 94 80 89 105
202 118 136 238 208 127 16 29 54 112 158 163 175 186 185 188 179 174 187 188 184 191 182 180 188 190 192 191 187 187 184 186 191 196 202 205 210 212 212 213 216 220 222 225 228 229 226 224 225 223 221 220 218 219 217 214 213 214 215 216 217 216 214 215 219 221 219 223 226 230 234 227 219 217 213 207 203 200 192 187 186 180 175 177 182 183 178 169 163 159 150 140 126 107 84 81 98
197 136 171 236 196 121 9 30 45 87 152 163 167 161 151 172 177 182 176 154 227 224 208 206 214 210 205 201 200 199 199 196 196 201 205 208 212 216 219 221 224 228 226 227 229 231 231 229 228 227 226 224 221 222 221 218 215 216 216 216 220 219 217 217 220 223 222 224 226 228 234 231 225 221 216 215 218 214 201 195 205 210 198 188 189 192 191 187 184 181 167 154 141 123 104 85 93
152 134 152 158 116 114 343 27 55 79 137 152 146 128 144 164 177 187 180 171 225 237 226 227 232 227 219 209 205 206 207 207 206 208 210 212 214 217 221 223 226 227 226 227 229 232 233 233 232 230 230 229 226 224 224 222 218 217 219 219 220 221 220 220 221 224 223 224 225 227 233 233 228 222 216 216 222 224 216 207 213 225 221 209 199 197 200 198 194 190 179 165 153 139 131 111 100
160 151 91 65 91 131 142 152 90 93 123 127 123 128 154 159 182 198 203 211 207 217 215 217 224 227 226 220 210 207 208 211 213 217 219 221 222 223 223 223 227 228 230 231 231 233 234 234 234 232 232 232 232 229 226 225 222 220 221 222 222 223 222 221 222 223 224 224 225 227 232 235 230 222 218 219 222 225 228 223 221 224 227 225 215 210 208 203 198 194 189 180 169 158 153 150 128
153 192 109 81 97 124 141 179 145 121 120 117 126 142 157 167 196 209 218 224 216 213 207 212 226 214 211 217 217 213 210 211 217 225 229 233 235 236 236 233 232 232 235 235 234 233 234 236 235 234 234 234 235 233 229 228 227 224 223 224 224 224 223 223 223 225 226 224 224 226 228 233 232 227 223 224 224 223 228 231 227 223 226 230 228 226 219 206 201 200 201 198 189 180 176 182 179
141 157 154 111 100 115 136 179 169 157 130 124 153 171 185 193 219 238 235 231 221 226 239 245 248 226 200 206 212 210 207 210 217 224 228 234 236 236 238 238 236 234 235 236 237 236 235 236 236 236 236 236 237 237 233 230 229 228 226 225 224 224 225 224 223 226 227 225 225 225 226 228 229 228 228 230 227 223 225 231 232 226 222 227 234 237 229 212 206 210 213 210 203 196 195 195 196
190 145 139 125 110 120 123 154 166 167 177 201 224 254 246 194 234 261 250 244 228 225 236 243 243 236 220 213 211 210 213 219 223 228 232 233 232 233 234 236 239 240 239 238 238 240 238 237 237 237 238 239 238 240 238 234 231 230 229 228 226 225 226 226 224 224 225 224 226 227 227 227 228 229 233 233 229 225 225 228 234 231 222 221 233 239 234 223 216 217 216 213 210 202 197 196 195
140 129 127 128 131 139 137 160 154 149 159 344 236 304 303 181 166 260 248 239 226 221 226 235 238 237 231 228 227 227 232 237 242 242 237 231 230 234 234 234 239 244 244 241 241 242 243 240 238 238 239 239 240 241 241 238 234 232 231 230 228 227 227 229 226 224 224 223 225 228 228 228 229 232 236 235 230 228 229 229 232 234 227 219 229 237 235 236 229 221 216 213 212 203 198 197 193
130 124 112 124 142 156 173 166 159 159 122 68 63 320 297 152 162 251 246 232 227 218 219 226 232 233 232 232 234 237 242 247 249 246 242 239 239 241 241 240 241 244 246 248 248 246 247 246 243 240 239 239 240 242 241 239 237 235 234 234 232 229 228 230 230 226 225 225 225 226 228 229 230 234 236 233 230 231 234 234 231 235 233 222 227 236 235 240 242 232 223 215 210 205 204 201 192
134 125 99 22 20 332 221 188 174 175 127 114 54 335 290 207 215 251 257 249 237 218 215 219 224 230 235 238 240 242 248 250 247 248 251 252 253 250 249 251 248 246 249 252 251 249 249 249 247 245 243 241 241 241 241 240 240 238 238 238 238 234 230 230 232 230 227 226 226 226 227 229 231 234 234 232 234 236 237 237 232 233 235 228 229 239 237 236 244 243 233 222 210 210 211 205 194
144 124 101 69 15 324 239 200 173 158 132 165 84 313 274 261 241 257 275 254 228 214 211 215 221 229 236 240 241 245 249 249 249 254 259 259 259 256 254 254 250 248 249 248 249 250 250 248 248 247 245 244 243 242 241 240 240 240 241 241 240 238 236 234 233 231 228 227 227 228 227 227 230 232 232 233 236 236 234 237 235 232 234 232 232 239 237 231 239 245 237 224 211 212 215 209 200
146 69 62 78 77 295 276 184 160 151 184 181 104 189 261 283 274 279 289 246 217 212 212 215 223 231 239 243 245 249 251 252 258 261 262 261 259 257 256 254 250 248 246 246 249 251 251 250 249 247 246 246 245 243 243 242 241 241 242 243 241 239 237 237 237 234 229 227 228 230 229 228 230 230 229 232 235 234 231 232 234 233 234 235 235 234 229 226 234 241 237 229 216 210 214 213 207
61 82 326 345 146 265 310 175 168 165 216 191 119 194 267 281 288 306 284 221 209 216 221 223 231 237 245 251 252 254 256 257 261 261 260 260 257 255 255 253 250 248 248 248 249 249 250 251 251 249 247 246 245 245 244 244 243 242 243 244 244 241 237 235 236 236 234 233 232 232 232 231 230 230 230 232 234 234 232 231 233 235 236 237 238 233 224 223 231 234 235 233 222 210 210 212 207
4 108 227 282 175 243 312 301 193 162 151 212 180 221 274 287 286 3 136 198 211 223 235 238 241 246 248 250 252 253 255 255 257 258 258 258 257 256 256 254 252 251 251 250 249 248 249 250 251 252 251 248 247 246 244 243 243 243 243 244 245 244 242 239 236 235 235 237 237 236 234 232 231 231 233 233 234 233 232 232 231 234 237 239 242 235 224 223 230 231 231 229 222 215 214 212 205
314 43 215 242 196 172 239 289 257 133 114 239 249 234 254 271 277 274 262 251 247 243 251 254 252 253 252 249 247 248 248 249 254 256 257 258 259 259 258 255 252 252 251 249 249 249 250 251 251 253 253 251 248 246 244 243 242 242 242 243 244 245 246 245 243 240 238 238 240 238 232 229 230 231 234 235 235 232 230 229 230 235 239 240 242 236 229 230 233 232 229 225 221 219 217 214 207
203 197 204 262 240 173 209 255 243 116 96 254 274 272 258 264 275 274 272 271 259 250 255 259 260 258 258 254 249 249 246 247 255 259 260 261 261 262 261 258 253 249 249 248 248 247 247 248 249 250 250 249 247 245 243 241 241 241 240 240 242 244 245 245 244 244 244 241 241 237 231 229 230 231 234 235 231 228 228 230 233 239 242 241 238 233 231 235 235 231 225 221 220 218 217 216 210
162 174 160 170 202 260 253 252 274 102 110 250 249 254 260 263 271 274 276 275 261 252 253 253 255 257 256 255 252 251 248 252 261 264 263 262 263 264 263 262 258 252 248 246 245 244 244 244 246 246 246 246 245 242 240 238 237 238 238 238 239 242 244 244 243 244 245 244 241 237 235 234 232 231 232 232 231 231 234 238 239 241 244 242 236 232 232 234 234 233 227 223 221 215 212 214 211
128 121 106 147 159 293 281 268 309 22 113 252 245 251 265 265 266 269 274 277 268 251 247 244 248 251 251 252 253 253 253 259 267 266 263 263 263 263 263 262 260 254 249 245 242 243 245 245 245 245 245 244 243 242 240 239 238 238 239 240 242 244 245 246 246 245 245 245 243 239 237 237 234 233 234 232 233 234 235 237 238 241 242 240 237 236 235 232 231 232 230 227 226 218 211 210 208
94 102 76 20 140 223 253 255 299 358 68 269 284 289 274 263 260 265 269 275 266 247 238 239 243 245 248 251 255 259 263 266 268 264 263 261 260 261 260 258 256 255 254 251 247 244 244 244 243 245 245 244 245 246 245 243 243 244 245 248 249 249 249 250 250 250 249 247 244 240 238 235 230 229 230 227 226 227 230 235 239 243 242 240 239 236 231 229 230 230 229 228 225 220 214 210 206
80 96 90 12 277 211 299 325 311 12 124 271 336 334 283 272 258 257 256 251 256 254 245 246 248 247 250 253 258 264 267 268 267 266 265 263 262 261 258 256 255 257 258 256 253 247 243 242 241 243 245 247 248 248 247 247 246 245 246 248 249 249 249 250 251 251 251 249 246 241 238 236 231 225 222 221 223 227 234 242 246 246 242 238 237 233 228 230 233 232 231 232 226 216 212 213 209
82 99 109 254 275 141 276 303 303 281 191 273 337 323 283 283 276 258 254 247 256 262 257 256 256 253 256 259 262 265 268 269 270 270 269 265 262 259 257 256 255 256 255 254 254 252 249 248 247 247 248 250 250 248 249 247 245 243 243 244 245 245 246 246 247 247 248 248 246 242 238 236 234 230 226 226 229 234 239 244 245 243 239 233 233 235 234 235 236 234 231 229 224 216 212 213 211
343 125 136 209 256 132 191 290 322 326 342 349 2 324 286 297 323 288 275 263 264 271 268 262 259 256 257 259 262 263 265 268 271 271 268 264 261 259 259 257 255 255 255 256 258 258 258 257 256 254 253 253 252 250 250 248 245 242 241 241 240 239 240 240 241 243 244 245 245 242 238 235 232 233 233 233 234 237 241 242 240 237 234 231 233 239 242 241 239 238 232 225 220 219 218 215 211
323 246 176 182 158 135 120 16 20 21 341 324 32 350 287 306 313 280 294 313 288 285 280 264 262 257 251 253 257 260 262 267 271 272 268 263 261 260 258 255 254 255 257 260 261 262 262 262 261 260 257 255 254 252 251 250 248 246 244 243 242 241 240 241 243 246 247 247 247 244 240 235 230 230 232 234 236 239 240 239 235 232 228 228 234 239 242 240 238 237 233 225 221 224 225 219 215
310 254 191 155 125 113 92 58 47 52 270 282 69 105 271 302 296 273 277 282 279 286 280 264 263 258 251 251 255 259 264 268 271 270 265 259 257 257 257 255 255 257 261 262 261 260 261 261 261 259 256 255 254 253 251 251 250 249 249 248 247 247 247 249 250 251 252 252 251 247 240 237 232 229 230 232 236 238 238 235 233 232 229 229 234 237 237 235 237 238 232 227 228 230 228 223 220
220 241 162 126 107 116 116 91 94 216 259 316 15 129 242 286 282 275 269 269 278 283 277 267 260 257 254 254 257 263 265 264 262 259 255 251 251 254 258 259 260 261 261 258 256 257 257 258 258 256 256 255 253 253 251 251 252 252 252 252 252 252 253 254 254 253 253 252 251 248 241 237 233 231 231 231 234 235 233 231 230 230 231 232 233 235 235 232 234 235 229 228 231 232 230 227 226
236 223 140 125 119 126 114 97 102 338 5 313 312 113 238 267 273 288 288 279 281 265 260 261 260 261 261 261 263 263 251 238 241 243 236 238 246 258 261 259 260 257 252 249 249 251 252 253 254 255 255 255 254 254 252 252 253 254 255 255 255 256 256 256 255 254 253 252 250 247 242 237 233 231 231 231 232 232 229 228 228 229 233 234 235 235 234 232 231 231 231 232 230 228 228 229 231
208 159 91 68 73 81 77 96 104 30 5 259 234 167 239 266 262 272 284 277 269 262 260 262 268 273 274 272 260 232 201 202 225 230 224 228 249 280 267 248 243 243 238 238 240 241 244 247 250 253 255 255 256 256 256 256 256 256 257 257 257 257 257 256 256 255 254 252 249 245 242 238 234 232 230 230 231 230 227 227 229 233 235 234 234 234 231 230 231 229 233 238 233 228 227 228 232
124 91 61 42 26 36 43 60 80 48 285 256 221 189 198 274 273 241 219 235 237 247 291 291 296 303 286 254 192 171 172 218 255 258 243 239 264 294 277 252 237 237 234 233 233 233 238 243 249 253 255 256 257 258 259 260 260 260 260 260 260 258 258 257 257 256 255 253 250 245 242 238 235 233 230 230 230 230 229 228 229 234 234 230 230 232 228 226 227 227 229 233 232 231 231 232 234
103 80 78 62 347 13 18 359 51 145 254 269 258 204 175 246 264 239 250 259 222 177 357 325 341 74 114 133 142 154 215 263 277 290 273 253 263 290 286 275 264 256 252 250 247 243 245 249 252 255 257 260 261 261 262 262 262 263 264 263 262 260 259 258 258 257 256 254 251 247 241 237 234 232 230 229 228 229 230 228 227 229 229 227 230 233 228 222 224 227 227 230 231 231 233 234 234
79 96 102 97 325 10 356 303 166 226 245 266 288 209 194 243 255 257 273 275 245 171 22 351 157 131 135 141 163 273 279 275 283 295 284 265 269 294 295 288 282 276 273 268 261 256 255 256 259 260 263 267 267 266 267 266 266 267 267 267 265 264 261 259 259 259 258 256 251 246 241 237 235 232 231 230 227 227 227 226 224 225 227 228 230 230 225 222 225 226 227 231 233 234 235 234 232
133 135 134 140 145 143 251 257 262 265 260 276 307 274 250 278 284 247 249 264 281 326 341 289 224 186 188 220 273 290 290 285 284 286 285 279 283 300 297 291 290 288 284 275 267 262 259 260 263 265 269 272 272 272 271 270 272 273 272 271 269 267 264 261 261 260 260 258 251 245 242 239 238 235 233 233 230 225 224 225 224 225 229 232 229 225 224 227 229 228 230 233 235 237 240 237 231
182 154 137 158 162 165 205 208 214 249 273 289 296 246 205 215 278 245 232 268 290 304 305 295 289 276 268 276 278 283 285 283 285 289 295 295 296 303 300 297 300 299 291 284 277 268 263 262 265 268 273 275 274 274 274 274 278 277 275 273 272 271 269 266 264 262 262 260 254 247 243 242 240 236 234 234 230 225 224 226 226 228 232 232 228 224 226 232 231 226 228 234 237 240 242 239 232
225 137 119 184 191 159 159 189 184 178 294 287 248 235 213 201 261 262 256 270 280 287 288 288 286 283 280 276 272 272 278 289 306 313 314 314 316 321 322 323 323 319 311 303 295 282 271 267 268 271 274 275 274 274 276 279 281 279 276 275 276 276 275 273 270 267 264 261 257 250 245 244 241 237 236 234 228 224 225 227 229 231 233 232 226 223 227 234 232 225 226 233 240 242 242 238 232
198 150 182 212 177 133 131 258 263 96 256 268 207 253 281 316 279 266 256 258 274 287 281 271 270 269 265 264 265 272 286 308 324 326 334 345 351 351 349 348 342 336 330 320 307 292 280 273 271 272 271 269 271 274 276 277 277 277 276 276 277 278 279 280 278 274 269 263 258 252 247 243 240 238 238 235 231 227 228 230 231 232 235 233 226 224 230 234 229 226 230 237 244 247 243 236 233
135 182 214 198 88 92 116 231 344 40 258 268 219 246 275 305 272 296 17 353 304 279 266 259 260 257 252 254 259 272 292 319 325 331 0 10 8 3 358 355 350 344 336 324 313 297 281 274 270 268 268 267 269 268 267 270 273 276 276 275 277 281 282 282 282 279 273 265 259 254 248 243 240 238 237 235 233 233 231 230 230 233 236 232 227 229 233 232 228 230 237 241 244 248 243 236 233
138 182 191 127 121 244 124 158 208 201 251 274 267 258 258 231 227 265 344 316 311 292 286 280 258 251 249 251 259 272 298 335 331 348 18 14 11 6 2 3 358 349 336 322 312 296 276 269 268 266 265 261 256 254 256 265 271 275 277 274 274 277 281 284 284 280 274 268 263 257 251 246 242 238 234 231 231 232 233 229 226 230 232 231 232 236 234 230 231 234 238 240 242 244 241 236 232
44 89 129 123 146 175 170 170 173 164 205 257 276 282 253 232 188 148 215 256 277 273 277 271 245 243 249 255 266 294 345 345 331 344 2 355 4 4 4 7 359 349 339 324 309 292 272 268 265 260 257 251 247 249 253 262 267 270 275 275 273 274 276 281 284 283 279 273 267 261 254 249 245 239 233 230 229 230 231 229 225 226 229 230 232 234 234 231 231 234 238 240 243 243 240 237 233
172 160 193 208 111 116 184 194 142 144 167 218 264 274 262 238 158 159 200 231 242 236 236 254 245 242 248 279 15 9 352 338 308 246 311 334 351 354 356 1 350 339 338 331 313 291 272 267 262 254 251 246 246 249 251 254 257 258 267 273 275 274 272 275 279 283 284 279 271 265 257 250 246 242 234 228 228 228 229 229 229 230 231 232 232 233 233 231 230 235 240 240 243 244 242 238 233
178 182 193 190 167 133 169 240 250 132 170 186 184 267 273 244 154 171 185 199 212 190 141 75 60 70 75 54 23 359 347 336 299 267 316 323 334 340 342 345 337 325 328 330 318 295 273 266 261 253 249 247 248 251 251 252 254 256 264 271 272 271 269 269 272 278 284 284 278 270 261 251 245 241 234 228 228 228 228 229 230 232 234 236 239 238 234 230 233 239 242 242 243 243 241 236 231